641  
ASUS43 KEAX 140815  
RWREAX  
 
WEATHER ROUNDUP FOR EASTERN KANSAS AND NORTHWEST MISSOURI  
NATIONAL WEATHER SERVICE KANSAS CITY/PLEASANT HILL MO  
300 AM CDT FRI AUG 14 2020  
 
KSZ040-057-103>105-MOZ028-029-037-043-140900-   
..KANSAS CITY METROPOLITAN AREA
 
 
 
CITY SKY/WX TMP DP RH WIND PRES REMARKS
 
K.C. INTL CLEAR 74 72 93 SE7 29.96F  
K.C. DOWNTOWN CLEAR 77 70 79 E5 29.95F  
LEES SUMMIT CLEAR 76 70 82 SE7 29.97F  
OLATHE - IXD CLEAR 74 71 91 E5 29.97F  
OLATHE - OJC CLEAR 73 72 96 SE5 29.97S  
LAWRENCE CLEAR 69 69 100 E5 29.95S FOG  
 

 
 
MOZ001>008-011>017-020>025-030>033-038>040-044>046-053-054-140900-   
..NORTHERN AND CENTRAL MISSOURI
 
 
 
CITY SKY/WX TMP DP RH WIND PRES REMARKS
 
ST. JOSEPH CLEAR 75 71 87 SE6 29.96F  
MOSBY CLEAR 72 70 94 CALM 29.97S  
HARRISONVILLE CLEAR 73 72 94 E5 29.98F  
WHITEMAN AFB CLEAR 71 68 90 CALM 29.93F  
CLINTON NOT AVBL  
SEDALIA CLEAR 71 68 90 SE3 29.98F  
MARSHALL CLEAR 70 70 100 E5 29.99S FOG  
CHILLICOTHE N/A 73 71 93 CALM 29.99F  
MOBERLY CLEAR 70 66 88 E6 30.00S  
KIRKSVILLE CLEAR 69 69 100 CALM 30.00F FOG  
 

 
 
MOZ041-047>049-056>058-063>065-088>090-097-140900-   
..EASTERN AND SOUTHERN MISSOURI
 
 
 
CITY SKY/WX TMP DP RH WIND PRES REMARKS
 
ST. LOUIS INTL PTCLDY 77 72 84 NE5 29.99F  
SPIRIT OF STL MOCLDY 72 70 93 CALM 29.97F FOG  
COLUMBIA CLEAR 72 69 90 E5 29.99F  
JEFFERSON CITY CLEAR 73 69 87 E3 29.97F  
MEXICO CLEAR 68 68 100 CALM 29.98F  
HANNIBAL CLEAR 73 72 94 E3 30.00S FOG  
ROLLA CLEAR 70 69 97 E3 29.99F FOG  
LEBANON CLEAR 72 70 94 E3 30.00F  
OSAGE BEACH CLEAR 71 70 96 E3 29.98F  
SPRINGFIELD CLEAR 72 68 87 SE7 29.96F  
BRANSON CLEAR 73 73 100 SE5 29.97F  
JOPLIN CLEAR 74 70 87 E3 29.93F  
WEST PLAINS CLEAR 71 69 93 CALM 29.99F  
SIKESTON MOCLDY 72 72 100 N5 29.94F  
 

 
 
IAZ060-094-KSZ022-034>040-054-083-096-NEZ052-066-093-140900-    
..KANSAS...SOUTHEAST NEBRASKA AND IOWA
 
 
 
CITY SKY/WX TMP DP RH WIND PRES REMARKS
 
TOPEKA CLEAR 72 68 87 CALM 29.94F  
MANHATTAN CLEAR 74 70 87 CALM 29.93F  
EMPORIA CLEAR 72 71 97 E5 29.94F  
CHANUTE CLEAR 76 71 85 E5 29.93F  
SALINA CLEAR 71 67 87 SE3 29.94S  
WICHITA CLEAR 75 69 81 SE7 29.92F  
OMAHA CLEAR 75 70 84 S8 29.95S  
LINCOLN CLEAR 73 69 87 MISG 29.95F  
FALLS CITY CLEAR 72 71 97 SE3 29.95F  
LAMONI CLEAR 72 69 90 SE6 29.99F  
DES MOINES CLEAR 73 70 90 SE6 29.97F  
 

 
 
 
 
CLICK HERE TO GO TO PREVIOUS BULLETINS.

The Nexlab MO Page
The Nexlab KS Page Main Text Page